KG1ZR Weather Reports


time (UTC)temp
F
wind
direction
speed
knots
gust
knots
rain 1hr
in
rain 24hr
in
rain mn
in
humidity
%
barometer
mb
20260506225402 54 177 4.3 10.4 0.02 0.28 0.27 58 1003.7
20260506224401 54 153 4.3 10.4 0.02 0.28 0.27 58 1003.8
20260506223401 54 191 4.3 9.6 0.03 0.28 0.27 58 1003.8
20260506222402 54 163 4.3 9.6 0.03 0.28 0.27 58 1004.0
20260506221401 54 236 4.3 8.7 0.03 0.27 0.26 58 1004.0
20260506220401 54 167 4.3 10.4 0.04 0.27 0.26 58 1004.2
20260506215402 54 188 3.5 10.4 0.04 0.26 0.25 59 1004.1
20260506214401 54 191 4.3 13.0 0.05 0.26 0.25 59 1004.3
20260506213401 54 202 6.1 13.0 0.05 0.25 0.24 59 1004.2
20260506212842 54 198 4.3 10.4 0.06 0.25 0.24 59 1004.2
20260506211403 54 228 4.3 10.4 0.06 0.24 0.23 60 1004.2
20260506210402 54 186 5.2 10.4 0.05 0.23 0.22 60 1004.1
20260506205401 54 145 4.3 12.2 0.05 0.22 0.21 61 1004.3
20260506204401 54 158 3.5 12.2 0.06 0.21 0.20 61 1004.3
20260506203401 54 194 3.5 9.6 0.06 0.20 0.19 62 1004.4
20260506202840 54 167 3.5 8.7 0.06 0.19 0.18 62 1004.7
20260506201401 54 213 4.3 7.8 0.06 0.18 0.17 63 1004.7
20260506200401 54 136 4.3 11.3 0.12 0.18 0.16 64 1004.5
20260506195401 54 194 5.2 15.6 0.13 0.17 0.16 65 1004.7
20260506194401 54 155 5.2 15.6 0.12 0.15 0.14 66 1004.8
20260506193401 55 147 3.5 11.3 0.12 0.14 0.13 67 1004.9
20260506192401 55 191 3.5 7.8 0.12 0.13 0.12 68 1005.1
20260506191400 55 190 4.3 7.8 0.11 0.12 0.11 70 1005.2
20260506190402 55 193 4.3 8.7 0.05 0.06 0.04 73 1005.3
20260506185401 56 167 4.3 9.6 0.03 0.04 0.03 74 1005.1
20260506184400 57 184 2.6 11.3 0.02 0.03 0.02 76 1005.0
20260506183851 58 198 3.5 11.3 0.01 0.02 0.01 77 1004.9
20260506182401 59 178 2.6 8.7 0.00 0.01 0.00 77 1005.0
20260506181401 59 198 3.5 11.3 0.00 0.01 0.00 78 1005.1
20260506180401 60 212 5.2 11.3 0.00 0.01 0.00 78 1005.1
20260506175401 60 146 3.5 9.6 0.00 0.01 0.00 78 1005.2
20260506174401 60 128 3.5 9.6 0.00 0.01 0.00 78 1005.4
20260506173401 60 178 3.5 9.6 0.00 0.01 0.00 78 1005.5
20260506172843 60 164 3.5 10.4 0.00 0.01 0.00 78 1005.7
20260506171401 60 216 4.3 9.6 0.00 0.01 0.00 77 1006.1
20260506170837 60 117 3.5 7.8 0.00 0.01 0.00 77 1006.2
20260506165401 60 196 3.5 7.8 0.00 0.01 0.00 77 1006.4
20260506164400 60 211 2.6 6.1 0.00 0.01 0.00 78 1006.5
20260506163401 60 188 3.5 8.7 0.00 0.01 0.00 78 1006.8
20260506162845 60 199 2.6 8.7 0.00 0.01 0.00 77 1006.8
20260506161400 60 180 3.5 8.7 0.00 0.01 0.00 78 1007.1
20260506160401 60 171 3.5 7.8 0.00 0.01 0.00 78 1007.2
20260506155401 60 125 3.5 7.0 0.00 0.01 0.00 77 1007.4
20260506154401 60 152 3.5 9.6 0.00 0.01 0.00 77 1007.4
20260506153839 60 95 4.3 9.6 0.00 0.01 0.00 77 1007.3
20260506152842 60 181 3.5 9.6 0.00 0.01 0.00 78 1007.3
20260506151401 60 188 2.6 9.6 0.00 0.01 0.00 78 1007.1
20260506151327 60 143 3.5 7.8 0.00 0.01 0.00 78 1007.2
20260506145401 60 202 3.5 7.8 0.00 0.01 0.00 78 1007.1
20260506144844 59 124 3.5 8.7 0.00 0.01 0.00 77 1006.8
20260506143402 59 131 2.6 7.0 0.00 0.01 0.00 77 1007.0
20260506142842 58 80 2.6 7.0 0.00 0.01 0.00 78 1007.4
20260506141401 58 185 3.5 7.8 0.00 0.01 0.00 78 1007.6
20260506140840 58 167 2.6 7.8 0.00 0.01 0.00 78 1007.7
20260506135401 58 198 2.6 6.1 0.00 0.01 0.00 78 1007.6
20260506134400 58 210 2.6 6.1 0.00 0.01 0.00 78 1007.6
20260506133400 57 147 1.7 5.2 0.00 0.01 0.00 78 1007.6
20260506132401 57 177 2.6 4.3 0.00 0.01 0.00 78 1007.7
20260506131401 58 138 1.7 3.5 0.00 0.01 0.00 78 1007.4
20260506130401 57 103 1.7 3.5 0.00 0.01 0.00 77 1007.6
20260506125401 57 130 1.7 3.5 0.00 0.01 0.00 78 1007.5
20260506124401 56 48 1.7 3.5 0.00 0.01 0.00 77 1007.8
20260506123400 56 75 0.9 3.5 0.00 0.01 0.00 78 1007.7
20260506122838 55 172 1.7 5.2 0.00 0.01 0.00 77 1008.0
20260506121401 55 119 1.7 6.1 0.00 0.01 0.00 77 1008.3
20260506120401 55 281 1.7 7.0 0.00 0.01 0.00 77 1008.2
20260506115400 55 78 1.7 6.1 0.00 0.01 0.00 77 1008.1
20260506114401 54 202 1.7 4.3 0.00 0.01 0.00 77 1008.5
20260506113401 53 144 1.7 4.3 0.00 0.01 0.00 77 1008.5
20260506112402 53 161 0.9 4.3 0.00 0.01 0.00 77 1008.6
20260506111401 53 205 0.0 1.7 0.00 0.01 0.00 76 1008.3
20260506110401 52 205 0.0 1.7 0.00 0.01 0.00 76 1008.5
20260506105401 52 205 0.0 1.7 0.00 0.01 0.00 76 1008.2
20260506104401 52 53 0.0 0.9 0.00 0.01 0.00 76 1008.2
20260506103401 52 53 0.0 1.7 0.00 0.01 0.00 75 1008.1
20260506102402 51 45 0.9 5.2 0.00 0.01 0.00 75 1008.3
20260506101401 51 140 0.9 5.2 0.00 0.01 0.00 75 1008.4
20260506100401 51 24 0.9 5.2 0.00 0.01 0.00 75 1008.5
20260506095401 51 142 1.7 5.2 0.00 0.01 0.00 75 1008.3
20260506094401 51 141 1.7 4.3 0.00 0.01 0.00 74 1008.2
20260506093401 51 138 1.7 2.6 0.00 0.01 0.00 74 1008.0
20260506092400 51 180 0.9 2.6 0.00 0.01 0.00 73 1008.0
20260506091401 51 305 0.0 1.7 0.00 0.01 0.00 74 1007.9
20260506090401 51 50 0.9 3.5 0.00 0.01 0.00 73 1007.7
20260506085401 50 117 1.7 4.3 0.00 0.01 0.00 73 1007.6
20260506084401 50 103 0.9 2.6 0.00 0.01 0.00 74 1008.0
20260506083401 50 103 0.9 2.6 0.00 0.01 0.00 75 1008.2
20260506082400 50 50 0.0 1.7 0.00 0.01 0.00 76 1008.3
20260506081401 51 50 0.0 0.0 0.00 0.01 0.00 76 1008.2
20260506081318 51 109 0.0 2.6 0.00 0.01 0.00 77 1008.1
20260506073357 52 333 0.9 2.6 0.00 0.01 0.00 78 1007.9
20260506072357 52 318 1.7 5.2 0.00 0.01 0.00 78 1007.4
20260506071357 52 198 2.6 5.2 0.00 0.01 0.00 78 1006.9
20260506070357 52 137 1.7 5.2 0.00 0.01 0.00 78 1006.7
20260506062357 53 157 4.3 9.6 0.00 0.01 0.00 78 1006.6
20260506061357 53 189 4.3 8.7 0.00 0.01 0.00 78 1006.7
20260506060350 53 239 3.5 7.0 0.00 0.01 0.00 78 1006.5
20260506051351 54 180 3.5 8.7 0.00 0.01 0.00 78 1006.4
20260506050351 55 194 4.3 8.7 0.00 0.01 0.00 78 1006.5
20260506044826 56 163 3.5 9.6 0.00 0.01 0.00 78 1006.7
20260506043823 56 273 3.5 7.0 0.00 0.01 0.00 78 1006.7
20260506042349 56 184 2.6 5.2 0.00 0.01 0.00 78 1006.5
20260506041349 57 159 2.6 5.2 0.00 0.01 0.00 77 1006.4
20260506040349 57 185 3.5 6.1 0.00 0.01 0.00 77 1006.1
20260506035348 58 194 2.6 5.2 0.00 0.01 0.01 77 1006.2
20260506034346 58 271 2.6 7.8 0.00 0.01 0.01 77 1006.1
20260506033346 58 173 3.5 7.8 0.00 0.01 0.01 77 1006.0
20260506032346 59 198 3.5 7.8 0.00 0.01 0.01 76 1006.1
20260506031827 59 223 2.6 6.1 0.00 0.01 0.01 76 1005.9
20260506030346 59 135 2.6 7.8 0.00 0.01 0.01 76 1006.2
20260506025346 59 200 1.7 5.2 0.00 0.01 0.01 77 1006.4
20260506024346 59 187 3.5 7.0 0.00 0.01 0.01 77 1006.2
20260506023345 59 207 3.5 7.0 0.00 0.01 0.01 77 1006.3
20260506022346 58 219 3.5 7.0 0.00 0.01 0.01 77 1006.4
20260506022255 58 169 2.6 7.0 0.00 0.01 0.01 77 1006.4
20260506020828 58 210 3.5 7.0 0.00 0.01 0.01 77 1006.5
20260506015346 58 224 2.6 7.0 0.00 0.01 0.01 77 1006.4
20260506014340 59 187 3.5 11.3 0.00 0.01 0.01 77 1006.6
20260506013340 60 123 5.2 11.3 0.00 0.01 0.01 77 1007.0
20260506012339 60 167 4.3 10.4 0.00 0.01 0.01 75 1006.5
20260506011339 60 165 2.6 6.1 0.00 0.01 0.01 73 1006.1
20260506010340 59 196 1.7 3.5 0.00 0.01 0.01 71 1005.8
20260506005339 59 164 0.9 1.7 0.00 0.01 0.01 71 1005.6
20260506004338 60 184 0.0 0.9 0.00 0.01 0.01 72 1005.5
20260506003338 60 184 0.0 1.7 0.00 0.01 0.01 73 1005.4
20260506002338 60 226 0.0 0.0 0.00 0.01 0.01 74 1005.4
20260506001332 61 226 0.0 2.6 0.01 0.01 0.01 76 1005.2
20260506000807 62 91 0.9 2.6 0.01 0.01 0.01 76 1004.8
20260505235329 63 150 0.0 3.5 0.01 0.01 0.01 77 1005.1
20260505234329 64 150 0.9 3.5 0.01 0.01 0.01 77 1005.4
20260505233329 64 200 0.9 3.5 0.01 0.01 0.01 76 1005.8
20260505232329 64 259 2.6 9.6 0.01 0.01 0.01 76 1006.0
20260505231805 64 269 2.6 9.6 0.00 0.00 0.00 75 1005.6
20260505230328 66 277 1.7 8.7 0.00 0.00 0.00 69 1005.2
20260505225813 67 233 3.5 12.2 0.00 0.00 0.00 63 1004.8